Hourly Data Report for August 08, 2019

TORONTO CITY
ONTARIO
Current Station Operator: ECCC - MSC

43°40'00.000" N
79°24'00.000" W
112.50 m
6158355
71508
XTO

Download Data

Hourly Data (August 2019)
Hourly Data Report for August 8, 2019
TIME
LST
Temp Definition
°C
Dew Point Definition
°C
Rel Hum Definition
%
Precip. Amount Definition
mm

Wind Dir Definition
10's deg

Wind Spd Definition
km/h
Visibility Definition
km
Stn Press Definition
kPa
Hmdx Definition


Wind Chill Definition


Weather Definition


00:00 20.1 14.0 68 0.0       99.30     LegendNANA
01:00 19.3 14.6 74 0.0       99.29     LegendNANA
02:00 18.7 13.9 74 0.0       99.29     LegendNANA
03:00 19.4 13.2 67 0.0       99.24     LegendNANA
04:00 18.1 13.4 74 0.0       99.19     LegendNANA
05:00 18.2 13.6 75 0.0       99.18     LegendNANA
06:00 20.1 14.5 70 0.0       99.14     LegendNANA
07:00 21.2 15.9 72 0.0       99.09 26   LegendNANA
08:00 23.2 17.6 70 0.0       99.07 29   LegendNANA
09:00 23.4 16.2 64 0.0       99.00 28   LegendNANA
10:00 22.3 16.6 70 0.0       99.00 27   LegendNANA
11:00 23.0 16.1 65 0.0       99.04 28   LegendNANA
12:00 24.4 16.6 62 0.0       98.96 29   LegendNANA
13:00 22.4 18.6 79 4.3       98.99 29   LegendNANA
14:00 23.7 17.8 70 0.0       99.02 30   LegendNANA
15:00 25.8 16.5 57 0.0       98.95 31   LegendNANA
16:00 26.3 12.8 43 0.0       99.02 29   LegendNANA
17:00 25.6 12.9 45 0.0       99.06 28   LegendNANA
18:00 24.9 11.1 42 0.0       99.12 27   LegendNANA
19:00 24.0 10.7 43 0.0       99.20 26   LegendNANA
20:00 22.6 11.0 48 0.0       99.26     LegendNANA
21:00 21.8 10.4 48 0.0       99.32     LegendNANA
22:00 21.5 10.8 51 0.0       99.35     LegendNANA
23:00 20.5 10.9 54 0.0       99.37     LegendNANA

Notes on Data Quality.

Legend

  • E = Estimated
  • M = Missing
  • NA = Not Available*
  • [empty] = Indicates an unobserved value
Date modified: